Location: Bacharowice
(49.9333°N, 19.5833°E)
Time: 08:14:42
(UTC+00:00)

Cosmos 2344 - Pass Details

Date: 29 September 2021
Orbit: 1235 x 3007 km, 63.3° (Epoch: 19 October)

Event Time Altitude Azimuth Distance (km) Brightness Sun altitude
Rises 18:29:29 0° 295° (WNW) 4,217 7.9 -20.6°
Reaches altitude 10° 18:32:24 10° 305° (NW) 3,322 6.9 -21.0°
Maximum altitude 18:39:35 35° 11° (N) 2,215 4.9 -22.1°
Enters shadow 18:46:21 16° 68° (ENE) 3,527 5.5 -23.1°
